This demonstration page uses our WeatherBlox Daily Observations layout. Learn more.

Left ArrowRight Arrow

38.89511, -77.03637

Hourly Observations for March 31, 2021

Temp ( °F °C ) Dew Point ( °F °C ) Humidity (%) Winds ( mph kmh ) Pressure ( in mb ) Visibility ( mi km ) Precip ( " mm )
12:52 am 00:52 Clear 56 13.3 48 8.9 75 75 S 10 17 30.19 1022 10 16.0934 0 0
1:52 am 01:52 Mostly Cloudy 57 13.9 50 10 78 78 S 13 20 30.16 1021 10 16.0934 0 0
2:52 am 02:52 Mostly Cloudy 58 14.4 51 10.6 78 78 S 13 20 30.14 1021 10 16.0934 0 0
3:52 am 03:52 Mostly Cloudy 59 15 52 11.1 78 78 S 15 24 30.13 1020 10 16.0934 0 0
4:52 am 04:52 Cloudy 59 15 52 11.1 78 78 S 12 19 30.13 1020 10 16.0934 0 0
5:48 am 05:48 Cloudy 59 15 52 11 77 77 S 10 17 30.12 1020 10 16.0934 0 0
5:52 am 05:52 Cloudy 59 15 52 11.1 78 78 SSW 10 17 30.12 1020 10 16.0934 0 0
6:52 am 06:52 Cloudy 60 15.6 53 11.7 78 78 S 14 22 30.1 1019 10 16.0934 0 0
7:52 am 07:52 Cloudy 61 16.1 55 12.8 81 81 S 14 22 30.11 1020 10 16.0934 0 0
8:10 am 08:10 Mostly Cloudy 61 16.1 55 12.8 81 81 S 20 31 30.1 1019 10 16.0934 0 0
8:52 am 08:52 Mostly Cloudy 63 17.2 55 12.8 76 76 S 20 31 30.08 1019 10 16.0934 0 0
9:25 am 09:25 Cloudy 64 17.8 56 13.3 75 75 S 16 26 30.08 1019 10 16.0934 0 0
9:45 am 09:45 Cloudy 64 17.8 57 13.9 78 78 S 17 28 30.07 1018 10 16.0934 0 0
9:52 am 09:52 Cloudy 63 17.2 57 13.9 81 81 S 16 26 30.07 1018 10 16.0934 0 0
10:52 am 10:52 Mostly Cloudy 64 17.8 57 13.9 78 78 S 12 19 30.06 1018 10 16.0934 0 0
11:08 am 11:08 Cloudy 65 18.3 57 13.9 76 76 S 12 19 30.06 1018 10 16.0934 0 0
11:52 am 11:52 Cloudy 64 17.8 57 13.9 78 78 S 7 11 30.05 1018 10 16.0934 0 0
12:52 pm 12:52 Cloudy with Light Rain 65 18.3 58 14.4 78 78 S 8 13 30.03 1017 5 8.0467 0.001 0.001
12:58 pm 12:58 Cloudy with Rain 64 17.8 58 14.4 81 81 SSW 7 11 30.03 1017 2 3.21868 0.001 0.001
1:04 pm 13:04 Cloudy with Rain 64 17.8 59 15 84 84 SSW 9 15 30.03 1017 4 6.43736 0.05 1.27
1:09 pm 13:09 Cloudy with Light Rain 64 17.8 60 15.6 87 87 SSW 8 13 30.02 1017 2 3.21868 0.05 1.27
1:15 pm 13:15 Cloudy with Rain 64 17.8 60 15.6 87 87 SW 6 9 30.02 1017 4 6.43736 0.09 2.286
1:31 pm 13:31 Cloudy with Light Rain 64 17.8 61 16.1 90 90 SW 6 9 30.02 1017 2 3.21868 0.13 3.302
1:47 pm 13:47 Cloudy with Light Rain 64 18 61 16 88 88 SW 3 6 30.02 1017 3 4.82802 0.2 5.08
1:52 pm 13:52 Cloudy with Rain 63 17.2 61 16.1 93 93 Calm 30.01 1016 3 4.82802 0.21 5.334
2:10 pm 14:10 Cloudy with Rain 63 17.2 61 16.1 93 93 Calm 30.01 1016 1.5 2.41401 0.06 1.524
2:14 pm 14:14 Cloudy with Heavy Rain 62 16.7 61 16.1 96 96 Calm 30 1016 0.75 1.207005 0.13 3.302
2:21 pm 14:21 Cloudy with Heavy Rain 63 17.2 61 16.1 93 93 Calm 30 1016 0.5 0.80467 0.27 6.858
2:32 pm 14:32 Cloudy with Heavy Rain 62 16.7 61 16.1 96 96 undefined N/A 29.99 1016 1.25 2.011675 0.42 10.668
2:41 pm 14:41 Cloudy with Light Rain 62 16.7 60 15.6 93 93 Calm 29.99 1016 0.5 0.80467 0.46 11.684
2:48 pm 14:48 Cloudy with Light Rain 63 17 61 16 94 94 Calm 29.98 1015 1 1.60934 0.47 11.938
2:52 pm 14:52 Cloudy with Light Rain 62 16.7 61 16.1 96 96 E 3 6 29.98 1015 1 1.60934 0.48 12.192
3:01 pm 15:01 Cloudy with Light Rain 62 16.7 61 16.1 96 96 E 3 6 29.97 1015 2 3.21868 0.02 0.508
3:10 pm 15:10 Cloudy with Light Rain 63 17.2 61 16.1 93 93 Calm 29.97 1015 3 4.82802 0.03 0.762
3:37 pm 15:37 Cloudy with Light Rain 63 17.2 61 16.1 93 93 Calm 29.96 1015 4 6.43736 0.05 1.27
3:52 pm 15:52 Cloudy with Light Rain 63 17.2 61 16.1 93 93 Calm 29.94 1014 4 6.43736 0.08 2.032
4:40 pm 16:40 Cloudy with Rain 62 16.7 60 15.6 93 93 SE 5 7 29.92 1013 2.5 4.02335 0.09 2.286
4:52 pm 16:52 Cloudy with Light Rain 62 16.7 60 15.6 93 93 SE 7 11 29.91 1013 3 4.82802 0.11 2.794
5:35 pm 17:35 Cloudy with Light Rain 62 16.7 59 15 90 90 ESE 7 11 29.88 1012 9 14.48406 0.02 0.508
5:52 pm 17:52 Cloudy with Light Rain 62 16.7 60 15.6 93 93 Calm 29.88 1012 10 16.0934 0.03 0.762
5:56 pm 17:56 Cloudy with Light Rain 62 16.7 60 15.6 93 93 Calm 29.89 1012 10 16.0934 0.001 0.001
6:52 pm 18:52 Cloudy 62 16.7 59 15 90 90 SW 3 6 29.91 1013 10 16.0934 0.01 0.254
6:54 pm 18:54 Mostly Cloudy 62 16.7 59 15 90 90 Calm 29.91 1013 10 16.0934 0 0
7:21 pm 19:21 Cloudy 62 16.7 59 15 90 90 SSE 3 6 29.9 1013 10 16.0934 0 0
7:52 pm 19:52 Cloudy 60 15.6 59 15 96 96 ESE 7 11 29.87 1012 10 16.0934 0 0
7:56 pm 19:56 Mostly Cloudy 60 15.6 59 15 96 96 ESE 5 7 29.87 1012 10 16.0934 0 0
8:28 pm 20:28 Mostly Cloudy 60 15.6 58 14.4 93 93 Calm 29.87 1012 10 16.0934 0 0
8:52 pm 20:52 Cloudy 60 15.6 59 15 96 96 Calm 29.87 1011 10 16.0934 0 0
8:58 pm 20:58 Cloudy 60 15.6 59 15 96 96 Calm 29.88 1012 10 16.0934 0 0
9:52 pm 21:52 Cloudy 59 15 58 14.4 96 96 SSE 3 6 29.88 1012 8 12.87472 0 0
10:09 pm 22:09 Cloudy 60 15.6 59 15 96 96 S 3 6 29.89 1012 10 16.0934 0 0
10:26 pm 22:26 Cloudy 59 15 58 14.4 96 96 S 6 9 29.89 1012 8 12.87472 0 0
10:52 pm 22:52 Cloudy 59 15 58 14.4 96 96 S 6 9 29.88 1012 9 14.48406 0 0
11:29 pm 23:29 Cloudy with Mist and Fog 60 15.6 59 15 96 96 SSW 6 9 29.87 1012 6 9.65604 0 0
11:42 pm 23:42 Cloudy with Mist and Fog 60 15.6 59 15 96 96 WSW 7 11 29.87 1012 6 9.65604 0 0
11:52 pm 23:52 Cloudy 61 16.1 59 15 93 93 NW 10 17 29.87 1011 8 12.87472 0 0

Powered by AerisWeather